カタログに戻る

CZ-4 DEB

運用中SSO
NORAD 27482·DEBRIS·🇨🇳 China

打ち上げ Sep 3, 1990 から Taiyuan Satellite Launch Center

Loading…

次のパス (今後24時間)

TLE

最新Source: Space-Track

元期: Sep 14, 2026, 10:45 UTC

1 27482U 90081CU  26257.44824843  .00000256  00000-0  16301-3 0  9997
2 27482  98.8921 239.6952 0010375  55.5217  96.8081 14.12306068317586

AllMySatでCZ-4 DEBをリアルタイム追跡

Download on the App Store